Change the Weather History Date:

Wednesday, April 18, 2012

  Actual Average Record
Temperature  
Mean Temperature 56 °F 48 °F  
Max Temperature 67 °F 60 °F 87 °F (1985)
Min Temperature 44 °F 36 °F 17 °F (1953)
Degree Days  
Heating Degree Days 9 17  
Month to date heating degree days 270 373  
Since 1 July heating degree days 5883 7288  
Cooling Degree Days 0 0  
Month to date cooling degree days 3 0  
Year to date cooling degree days 13 0  
Growing Degree Days 6 (Base 50)    
Moisture  
Dew Point 47 °F    
Average Humidity 69    
Maximum Humidity 89    
Minimum Humidity 48    
Precipitation  
Precipitation 0.28 in 0.11 in 1.50 in (1978)
Month to date precipitation 1.92 1.76  
Year to date precipitation 4.96  
Sea Level Pressure  
Sea Level Pressure 29.95 in    
Wind  
Wind Speed 14 mph (WNW)    
Max Wind Speed 29 mph    
Max Gust Speed 36 mph    
Visibility 10 miles    
Events Rain    
T = Trace of Precipitation, MM = Missing Value Source: NWS Daily Summary

Daily Weather History Graph

Daily Weather History Graph

Search for Another Location

Airport or City:

Trip Planner

Search our weather history database for the weather conditions in past years. The results will help you decide how hot, cold, wet, or windy it might be!

Date:

Astronomy

Apr. 18, 2012 Rise Set
Actual Time 6:30 AM CDT 8:06 PM CDT
Civil Twilight 6:00 AM CDT 8:36 PM CDT
Nautical Twilight 5:24 AM CDT 9:12 PM CDT
Astronomical Twilight 4:45 AM CDT 9:52 PM CDT
Moon 5:00 AM CDT (4/18) 5:55 PM CDT (4/18)
Length of Visible Light 14h 35m
Length of Day
13h 35m
Waning Crescent, 6% of the Moon is Illuminated
Apr 18
Waning Crescent
Apr 21
New
Apr 29
First Quarter
May 5
Full
May 12
Last Quarter

Hourly Weather History & Observations

Time (CDT) Temp. Windchill Dew Point Humidity Pressure Visibility Wind Dir Wind Speed Gust Speed Precip Events Conditions
12:52 AM 55.9 °F - 46.9 °F 72% 29.92 in 10.0 mi South 21.9 mph 29.9 mph N/A   Mostly Cloudy
1:52 AM 55.9 °F - 46.9 °F 72% 29.88 in 10.0 mi South 20.7 mph 26.5 mph N/A   Overcast
2:52 AM 55.9 °F - 48.9 °F 77% 29.94 in 9.0 mi WSW 20.7 mph 31.1 mph 0.01 in Rain Light Rain
3:52 AM 54.0 °F - 50.0 °F 86% 29.89 in 8.0 mi South 21.9 mph 28.8 mph 0.25 in Rain Rain
4:52 AM 54.0 °F - 50.0 °F 86% 29.90 in 10.0 mi SSW 20.7 mph 27.6 mph 0.02 in   Mostly Cloudy
5:52 AM 53.1 °F - 48.9 °F 86% 29.91 in 10.0 mi SW 18.4 mph - N/A   Clear
7:52 AM 53.1 °F - 48.0 °F 83% 29.98 in 10.0 mi West 16.1 mph 24.2 mph N/A   Clear
8:52 AM 55.0 °F - 48.9 °F 80% 29.98 in 10.0 mi West 17.3 mph 27.6 mph N/A   Clear
9:52 AM 54.0 °F - 48.9 °F 83% 29.98 in 10.0 mi WSW 15.0 mph 20.7 mph N/A   Partly Cloudy
10:52 AM 59.0 °F - 50.0 °F 72% 29.98 in 10.0 mi West 17.3 mph 23.0 mph N/A   Clear
11:52 AM 60.1 °F - 50.0 °F 69% 29.98 in 10.0 mi WNW 18.4 mph 25.3 mph N/A   Clear
12:52 PM 61.0 °F - 48.9 °F 64% 29.98 in 10.0 mi West 16.1 mph 23.0 mph N/A   Clear
1:52 PM 63.0 °F - 48.0 °F 58% 29.96 in 10.0 mi West 13.8 mph - N/A   Clear
2:52 PM 66.0 °F - 46.9 °F 50% 29.96 in 10.0 mi NW 12.7 mph 25.3 mph N/A   Mostly Cloudy
3:52 PM 64.9 °F - 44.1 °F 47% 29.95 in 10.0 mi NNW 5.8 mph 20.7 mph N/A   Scattered Clouds
4:52 PM 64.0 °F - 45.0 °F 50% 29.94 in 10.0 mi NNW 9.2 mph - N/A   Scattered Clouds
5:52 PM 62.1 °F - 46.0 °F 56% 29.95 in 10.0 mi NNE 17.3 mph 21.9 mph N/A   Clear
6:52 PM 57.0 °F - 44.1 °F 62% 29.96 in 10.0 mi North 12.7 mph 20.7 mph N/A   Clear
7:52 PM 54.0 °F - 43.0 °F 66% 29.96 in 10.0 mi NNE 9.2 mph - N/A   Clear
8:52 PM 51.1 °F - 43.0 °F 74% 29.98 in 10.0 mi NNE 8.1 mph - N/A   Clear
9:52 PM 48.0 °F - 42.1 °F 80% 29.98 in 10.0 mi NNE 6.9 mph - N/A   Clear
10:52 PM 45.0 °F 40.6 °F 41.0 °F 86% 29.97 in 10.0 mi NNE 8.1 mph - N/A   Clear
11:52 PM 46.0 °F 42.5 °F 41.0 °F 83% 29.98 in 10.0 mi North 6.9 mph - N/A   Clear